SCP
0 0 0 0 0 0 0 0 0 0 0 0 0 0 0 0 0 0 0 0 0 0 0 0 0 0 0 0 0 0 0 0 0 0 0 1 1 1 1 1 1 0 0 0
0 0 0 0 0 0 0 0 0 0 0 0 0 0 0 0 0 0 0 0 0 0 0 0 0 0 0 0 0 0 0 0 0 0 0 0 1 0 0 1 1 1 0 0
0 0 0 0 0 0 0 0 0 0 0 0 0 0 0 0 0 0 0 0 0 0 0 0 0 0 0 0 0 0 0 0 0 1 0 0 0 0 0 0 1 1 0 0
0 0 0 0 0 0 0 0 0 0 0 0 0 0 0 0 0 0 0 0 0 0 0 0 0 0 0 0 0 0 0 0 0 0 0 0 0 0 0 0 0 1 1 0
0 0 0 0 0 0 0 0 0 0 0 0 0 0 0 0 0 0 0 0 0 0 0 0 0 0 0 0 0 0 0 0 0 0 0 0 0 0 0 0 0 0 0 0
0 0 0 0 0 0 0 0 0 0 0 0 0 0 0 0 0 0 0 0 0 0 0 0 0 0 0 0 0 0 0 0 0 0 0 0 0 0 0 0 0 0 0 0
0 0 0 0 0 0 0 0 0 0 0 0 0 0 0 0 0 0 0 0 0 0 0 0 0 0 0 0 0 0 0 0 0 0 0 0 0 0 0 0 0 0 0 0
0 0 0 0 0 0 0 0 0 0 0 0 0 0 0 0 0 0 0 0 0 0 0 0 0 0 0 0 0 0 0 0 0 0 0 0 0 0 0 0 0 0 0 0
0 0 0 0 0 0 0 0 0 0 0 0 0 0 0 0 0 0 0 0 0 0 0 0 0 0 0 0 0 0 0 0 0 0 0 0 0 0 0 0 0 0 0 0
0 0 0 0 0 0 0 0 0 0 0 0 0 0 0 0 0 0 0 0 0 0 0 0 0 0 0 0 0 0 0 0 0 0 0 0 0 0 0 0 0 0 0 0
0 0 0 0 0 0 0 0 0 0 0 0 0 0 0 0 0 0 0 0 0 0 0 0 0 0 0 0 0 0 0 0 0 0 0 0 0 0 0 0 0 0 0 0
0 0 0 0 0 0 0 0 0 0 0 0 0 0 0 0 0 0 0 0 0 0 0 0 0 0 0 0 0 0 0 0 0 0 0 0 0 0 0 0 0 0 0 0
0 0 0 0 0 0 0 0 0 0 0 0 0 0 0 0 0 0 0 0 0 0 0 0 0 0 0 0 0 0 0 0 0 0 0 0 0 0 0 0 0 0 0 0
0 0 0 0 0 0 0 0 0 0 0 0 0 0 0 0 0 0 0 0 0 0 0 0 0 0 0 0 0 0 0 0 0 0 0 0 0 0 0 0 0 0 0 0
0 0 0 0 0 0 0 0 0 0 0 0 0 0 0 0 0 0 0 0 0 0 0 0 0 0 0 0 0 0 0 0 0 0 0 0 0 0 0 0 0 0 0 0
0 0 0 0 0 0 0 0 0 0 0 0 0 0 0 0 0 0 0 0 0 0 0 0 0 0 0 0 0 0 0 0 0 0 0 0 0 0 0 0 0 0 0 0
0 0 0 0 0 0 0 0 0 0 0 0 0 0 0 0 0 0 0 0 0 0 0 0 0 0 0 0 0 0 0 0 0 0 0 0 0 0 0 0 0 0 0 0
0 0 0 0 0 0 0 0 0 0 0 0 0 0 0 0 0 0 0 0 0 0 0 0 0 0 0 0 0 0 0 0 0 0 0 0 0 0 0 0 0 0 0 0
0 0 0 0 0 0 0 0 0 0 0 0 0 0 0 0 0 0 0 0 0 0 0 0 0 0 0 0 0 0 0 0 0 0 0 0 0 0 0 0 0 0 0 0
0 0 0 0 0 0 0 0 0 0 0 0 0 0 0 0 0 0 0 0 0 0 0 0 0 0 0 0 0 0 0 0 0 0 0 0 0 0 0 0 0 0 0 0
0 0 0 0 0 0 0 0 0 0 0 0 0 0 0 0 0 0 0 0 0 0 0 0 0 0 0 0 0 0 0 0 0 0 0 0 0 0 0 0 0 0 0 0
0 0 0 0 0 0 0 0 0 0 0 0 0 0 0 0 0 0 0 0 0 0 0 0 0 0 0 0 0 0 0 0 0 0 0 0 0 0 0 0 0 0 0 0
0 0 0 0 0 0 0 0 0 0 0 0 0 0 0 0 0 0 0 0 0 0 0 0 0 0 0 0 0 0 0 0 0 0 0 0 0 0 0 0 0 0 0 0
0 0 0 0 0 0 0 0 0 0 0 0 0 0 0 0 0 0 0 0 0 0 0 0 0 0 0 0 0 0 0 0 0 0 0 0 0 0 0 0 0 0 0 0
0 0 0 0 0 0 0 0 0 0 0 0 0 0 0 0 0 0 0 0 0 0 0 0 0 0 0 0 0 0 0 0 0 0 0 0 0 0 0 0 0 0 0 0
0 0 0 0 0 0 0 0 0 0 0 0 0 0 0 0 0 0 0 0 0 0 0 0 0 0 0 0 0 0 0 0 0 0 0 0 0 0 0 0 0 0 0 0
0 0 0 0 0 0 0 0 0 0 0 0 0 0 0 0 0 0 0 0 0 0 0 0 0 0 0 0 0 0 0 0 0 0 0 0 0 0 0 0 0 0 0 0
Wind_Speed
8 6 6 8 9 10 11 11 11 9 7 4 3 3 3 2 2 1 1 1 0 1 2 2 3 3 3 3 4 3 3 3 3 3 3 3 3 3 3 3 3 4 3 3
9 8 7 8 10 11 11 11 11 9 6 2 2 2 2 2 2 1 1 1 1 1 1 2 2 3 3 3 3 4 4 3 3 3 3 3 3 3 3 2 3 3 3 3
9 7 8 9 7 8 8 7 8 7 3 1 1 1 2 3 2 2 2 2 2 2 1 1 2 2 3 3 4 4 4 3 3 3 3 2 2 2 2 2 2 2 3 2
7 7 10 1 3 2 2 2 3 3 2 2 1 1 2 3 3 3 3 2 2 1 1 1 2 2 3 3 4 4 4 3 3 3 2 2 2 2 2 2 2 2 3 2
6 8 5 3 0 2 4 3 2 2 1 1 0 1 1 3 4 2 2 2 1 1 0 2 2 3 3 3 3 4 4 3 2 2 2 2 3 3 2 2 2 3 3 3
7 8 6 1 2 3 5 4 1 1 1 1 2 3 2 4 4 4 2 2 1 1 1 1 2 3 4 4 3 3 3 2 2 2 2 3 3 3 2 2 2 2 2 2
8 7 2 3 2 3 5 1 3 2 2 1 1 3 4 3 3 4 3 2 2 2 1 1 1 2 2 2 2 1 1 1 1 2 2 3 2 3 3 2 2 2 2 2
6 6 2 3 0 1 3 4 3 3 2 2 3 3 4 4 4 4 4 3 3 2 2 1 1 1 1 1 0 0 1 1 1 1 1 1 2 2 2 2 3 3 3 2
2 1 4 2 2 3 2 1 2 2 2 3 3 4 4 4 4 4 4 3 3 3 3 2 2 2 1 2 1 1 1 1 1 1 0 1 2 2 2 2 2 2 2 2
2 1 1 1 2 2 2 1 2 2 2 3 3 3 3 3 3 3 3 2 2 2 2 3 3 2 2 2 1 1 1 1 1 1 1 0 1 1 1 1 1 2 2 1
3 1 0 1 2 2 2 2 2 3 2 2 1 1 2 1 1 1 2 2 2 2 2 3 2 2 2 2 0 1 1 0 0 0 1 1 0 1 1 1 1 2 2 2
3 2 2 1 1 2 2 2 1 1 2 2 1 1 1 1 1 1 1 1 1 1 1 2 2 2 2 2 1 0 1 1 0 0 0 1 1 1 2 1 2 1 1 2
3 1 1 0 0 1 1 1 1 1 1 1 2 1 1 1 0 0 0 1 1 1 1 1 1 1 2 2 1 1 1 0 1 1 1 1 1 1 1 2 3 3 3 2
1 1 1 1 1 1 1 1 1 1 1 1 1 1 1 0 0 0 0 0 0 0 0 1 1 1 1 1 0 0 0 0 1 1 1 1 1 1 1 1 1 2 4 5
2 2 2 2 2 1 1 1 1 1 1 1 1 1 0 0 0 0 0 0 0 0 0 1 1 1 0 0 1 1 1 1 1 1 1 1 1 2 2 1 1 1 1 2
3 3 2 2 2 1 1 1 2 2 1 1 1 1 1 1 1 0 0 0 1 1 1 1 1 1 1 1 2 2 1 0 2 2 2 2 2 2 2 2 1 1 1 1
4 3 3 3 2 2 2 2 3 2 2 1 1 1 1 1 1 1 0 0 0 1 1 1 1 2 1 1 2 2 2 2 3 4 2 2 2 2 2 2 2 2 1 1
4 4 4 3 3 2 2 2 2 2 2 1 1 2 2 1 1 1 0 0 1 1 0 1 2 2 2 2 2 3 2 2 2 2 2 2 2 2 2 3 3 3 2 2
3 3 3 3 3 2 2 2 2 2 2 2 1 1 1 1 0 0 0 1 1 1 1 1 2 2 2 2 3 3 3 3 2 2 3 2 3 3 3 3 3 3 2 2
2 2 2 2 2 2 2 2 1 1 1 1 1 2 2 1 1 1 2 2 1 2 2 1 2 2 2 2 3 3 3 3 3 3 3 3 3 3 3 3 3 2 3 3
2 2 3 3 2 2 2 1 1 1 1 2 2 2 2 2 2 2 3 2 1 1 1 2 3 2 2 2 3 3 3 2 3 3 3 3 3 3 4 3 3 3 3 3
2 2 3 3 2 2 2 2 2 2 2 2 2 2 2 2 2 2 2 2 2 1 2 3 2 2 2 4 4 3 3 3 2 3 3 3 3 4 4 4 3 3 3 3
2 2 2 3 2 2 2 2 2 2 2 2 1 1 2 2 2 2 2 1 2 2 3 2 2 2 3 6 4 3 3 3 3 3 3 4 4 3 3 4 4 4 3 4
2 2 2 2 2 2 2 2 2 2 2 2 2 2 2 2 2 1 1 1 1 2 2 1 0 3 6 5 4 4 3 3 3 3 4 4 4 4 4 4 4 4 4 5
2 3 3 3 3 3 2 2 3 3 3 2 2 2 2 2 2 1 2 2 1 3 2 2 4 5 6 4 3 3 3 3 3 4 4 4 4 4 4 4 5 4 4 4
3 3 3 3 2 2 2 2 2 2 2 2 1 1 1 1 1 2 2 3 3 2 3 2 2 3 3 3 3 3 3 2 2 3 4 4 5 4 4 4 5 5 5 5
3 3 3 3 3 3 3 2 2 2 2 2 1 1 1 1 1 2 2 2 2 2 2 2 2 2 2 3 3 3 3 3 3 3 3 3 4 4 3 4 4 4 4 4
Wind_Direction
265 278 257 242 239 236 240 253 261 270 275 297 319 313 320 321 324 347 25 35 228 201 183 188 194 194 184 177 172 179 193 199 200 205 208 212 206 203 206 209 206 200 200 196
247 246 248 248 243 239 242 250 259 265 269 336 3 353 333 317 292 288 300 327 327 258 211 205 205 202 188 185 180 183 196 206 205 212 215 214 205 194 190 196 195 189 192 192
243 237 249 242 248 246 239 248 262 265 292 10 359 344 345 331 314 304 295 306 295 278 243 234 221 205 200 193 191 194 201 208 210 212 212 216 211 194 189 190 192 194 194 188
248 232 240 117 56 312 255 264 288 295 312 310 337 356 17 354 339 338 326 306 289 282 249 222 216 204 207 204 198 201 209 213 208 203 203 203 199 197 207 207 200 196 195 196
248 239 233 173 111 287 254 243 315 300 314 347 15 229 111 23 7 354 341 340 330 322 183 183 196 198 199 203 203 207 217 215 206 200 196 199 201 198 203 210 210 207 196 199
244 251 249 81 36 310 254 213 52 355 331 317 267 262 31 23 4 6 22 24 10 34 97 169 191 196 192 195 204 218 223 208 210 209 205 207 202 200 206 215 213 222 197 195
247 249 246 39 6 249 233 47 22 359 360 341 341 354 25 20 18 24 40 58 56 59 67 92 162 178 185 191 204 220 212 191 195 203 208 199 192 194 198 206 203 213 199 194
243 244 226 56 97 304 21 25 25 29 30 25 40 49 46 35 32 34 36 46 60 59 45 52 99 121 118 85 27 117 153 159 162 204 236 182 196 195 197 200 201 207 206 211
286 18 63 66 38 32 25 32 41 45 37 48 57 52 44 39 33 31 32 32 44 52 45 39 52 71 65 53 53 89 106 115 142 153 222 236 219 204 207 213 231 234 229 225
222 147 79 59 52 35 31 53 52 51 51 56 59 53 47 45 35 26 26 22 24 43 44 47 47 53 45 45 73 98 106 135 168 164 187 187 269 255 248 240 245 249 252 253
231 221 177 79 48 34 35 49 47 56 51 51 66 59 51 53 29 10 8 -0 12 35 36 35 43 36 33 32 97 135 141 147 220 189 156 172 196 344 294 339 342 290 285 268
258 239 257 258 1 6 26 29 35 42 26 23 18 6 345 337 324 329 353 2 17 24 25 32 34 32 36 27 20 140 154 178 207 258 119 211 187 129 82 116 108 159 275 302
284 275 283 280 323 322 346 344 349 352 346 348 358 344 337 336 353 57 42 9 16 12 18 28 31 34 36 41 40 38 26 349 292 270 228 258 277 232 188 164 177 186 195 206
185 186 199 235 248 277 329 316 312 304 307 333 359 348 335 1 353 130 107 69 349 78 63 48 33 41 38 56 42 329 261 144 255 274 276 269 282 274 266 260 203 191 187 183
204 214 217 224 235 236 288 286 254 269 304 344 345 304 274 239 257 296 61 36 201 331 50 46 36 23 14 192 245 273 278 279 288 290 282 268 270 271 268 267 276 304 328 154
217 224 221 229 233 224 233 254 277 297 304 298 285 271 260 242 226 249 269 265 262 317 353 358 357 322 256 230 226 228 232 299 281 277 267 260 266 288 292 288 284 295 292 339
222 230 237 241 241 244 257 277 288 296 299 292 264 229 222 228 230 245 292 299 295 296 324 338 326 308 288 268 263 256 252 208 211 246 261 274 277 287 290 287 290 287 283 96
236 238 238 240 242 249 257 262 267 272 279 280 253 214 207 219 244 290 320 234 200 221 308 343 340 309 288 281 280 283 280 277 266 271 279 278 280 277 283 284 285 284 287 176
231 228 224 226 235 241 246 259 272 275 269 253 228 208 208 215 221 236 269 252 247 254 301 341 319 276 274 293 291 263 273 277 277 277 277 264 258 264 268 272 279 285 290 295
211 200 197 208 215 215 223 238 254 245 237 226 212 206 202 207 222 237 246 258 286 316 311 313 271 272 276 285 286 281 281 283 289 291 291 287 280 282 284 282 281 285 288 289
217 204 199 203 217 227 229 228 221 220 212 215 221 217 213 217 237 258 267 274 310 338 300 242 255 270 280 310 258 273 282 290 298 301 298 293 292 293 298 299 294 289 287 287
234 213 205 202 210 216 212 211 211 207 195 213 229 228 222 227 239 256 271 297 322 356 280 265 272 21 350 298 271 276 284 285 284 289 289 289 290 291 298 299 293 290 291 293
245 237 217 207 200 197 200 201 200 200 205 224 229 231 243 263 276 277 281 332 326 338 293 312 16 38 295 270 276 279 286 289 287 286 287 287 285 291 295 295 293 296 303 301
241 226 214 198 188 184 197 209 207 200 205 217 216 229 249 254 255 273 313 83 322 299 294 15 13 271 263 264 275 280 282 283 285 288 288 288 290 293 292 294 294 291 293 292
231 224 207 199 203 201 196 204 207 208 216 213 215 217 236 256 277 303 305 304 299 266 265 210 219 250 262 276 279 284 292 307 314 311 304 299 295 291 291 295 300 298 297 295
233 229 209 212 220 228 219 211 211 207 221 219 211 220 234 238 254 261 263 268 272 266 277 279 256 246 271 284 288 295 303 303 284 280 292 296 295 296 301 305 304 304 304 301
223 216 208 216 215 217 221 218 218 220 225 228 230 240 255 254 255 265 273 277 277 275 287 288 287 289 300 303 305 302 301 305 306 299 294 292 297 302 307 305 306 308 305 306